Back to catalog

IRIDIUM 156

AliveCommunicationsPO
NORAD 43576·PAYLOAD·🇺🇸 United States

Launched Jul 25, 2018 from Vandenberg Space Force Base

Loading…

Next Passes (next 24 hours)

TLE

FreshSource: CelesTrak SupGP

Epoch: Sep 14, 2026, 10:19 UTC

1 43576C 18061H   26257.43020833 -.00005112  00000+0 -18280-2 0  2574
2 43576  86.4011  19.4030 0002147  92.8804 314.0705 14.34222999    15

Track IRIDIUM 156 in real time with AllMySat

Download on the App Store